This demonstration page uses our WeatherBlox Daily Observations layout. Learn more.

Left ArrowRight Arrow

Hourly Observations for May 17, 2015

Temp ( °F °C ) Dew Point ( °F °C ) Humidity (%) Winds ( mph kmh ) Pressure ( in mb ) Visibility ( mi km ) Precip ( " mm )
12:52 am 00:52 Cloudy with Light Rain 64 17.8 62 16.7 93 93 ESE 24 39 29.63 1004 10 16 0.05 1.27
1:52 am 01:52 Partly Cloudy 64 17.8 61 16.1 90 90 S 8 13 29.61 1003 10 16 0.02 0.51
2:27 am 02:27 Mostly Cloudy 64 17.8 61 16.1 90 90 S 7 11 29.59 1002 10 16 0.00 0.00
2:48 am 02:48 Partly Cloudy 63 17 61 16 94 94 SSE 8 13 29.59 1002 10 16 0.00 0.00
2:52 am 02:52 Partly Cloudy 63 17.2 61 16.1 93 93 SE 9 15 29.60 1002 10 16 0.00 0.00
3:52 am 03:52 Mostly Clear 63 17.2 61 16.1 93 93 S 12 19 29.59 1002 10 16 0.00 0.00
4:52 am 04:52 Mostly Clear 62 16.7 59 15 90 90 S 12 19 29.59 1002 10 16 0.00 0.00
5:52 am 05:52 Mostly Cloudy 62 16.7 59 15 90 90 S 15 24 29.59 1002 10 16 0.00 0.00
6:13 am 06:13 Cloudy 62 16.7 59 15 90 90 S 14 22 29.59 1002 10 16 0.00 0.00
6:52 am 06:52 Cloudy 62 16.7 59 15 90 90 S 14 22 29.61 1003 10 16 0.00 0.00
7:52 am 07:52 Cloudy with Drizzle 63 17.2 60 15.6 90 90 S 14 22 29.64 1004 3 5 0.00 0.03
8:36 am 08:36 Cloudy 63 17 61 16 94 94 S 10 17 29.62 1003 10 16 0.00 0.00
8:52 am 08:52 Cloudy 64 17.8 61 16.1 90 90 S 12 19 29.63 1004 10 16 0.01 0.25
9:52 am 09:52 Cloudy 67 19.4 62 16.7 84 84 S 12 19 29.61 1003 10 16 0.00 0.00
10:32 am 10:32 Mostly Cloudy 70 21 61 16 73 73 S 14 22 29.59 1002 10 16 0.00 0.00
10:52 am 10:52 Cloudy 71 21.7 61 16.1 71 71 SSW 15 24 29.60 1003 10 16 0.00 0.00
11:52 am 11:52 Mostly Cloudy 68 20 61 16.1 78 78 SSW 14 22 29.62 1003 7 11 0.00 0.00
12:52 pm 12:52 Partly Cloudy 74 23.3 59 15 60 60 SSW 22 35 29.64 1004 10 16 0.02 0.51
1:52 pm 13:52 Mostly Cloudy 73 22.8 56 13.3 55 55 SW 22 35 29.66 1005 10 16 0.00 0.00
2:52 pm 14:52 Partly Cloudy 76 24.4 56 13.3 50 50 SW 21 33 29.67 1005 10 16 0.00 0.00
3:52 pm 15:52 Partly Cloudy 78 25.6 56 13.3 47 47 WSW 22 35 29.69 1006 10 16 0.00 0.00
4:52 pm 16:52 Partly Cloudy 79 26.1 52 11.1 39 39 W 23 37 29.72 1007 10 16 0.00 0.00
5:52 pm 17:52 Partly Cloudy 79 26.1 50 10 36 36 W 25 41 29.76 1008 10 16 0.00 0.00
6:52 pm 18:52 Partly Cloudy 77 25 51 10.6 40 40 WNW 12 19 29.79 1009 10 16 0.00 0.00
7:52 pm 19:52 Mostly Cloudy 75 23.9 52 11.1 45 45 W 13 20 29.82 1010 10 16 0.00 0.00
8:52 pm 20:52 Mostly Cloudy 70 21.1 55 12.8 59 59 SW 12 19 29.87 1011 10 16 0.01 0.25
9:52 pm 21:52 Mostly Cloudy 67 19.4 56 13.3 68 68 WNW 7 11 29.92 1013 10 16 0.00 0.00
10:52 pm 22:52 Partly Cloudy 64 17.8 53 11.7 68 68 NNW 15 24 29.93 1014 10 16 0.00 0.00
11:52 pm 23:52 Partly Cloudy 60 15.6 50 10 70 70 NNW 16 26 29.96 1015 10 16 0.00 0.00

Powered by AerisWeather